LEMD Weather Reports


time (UTC)temp
C
wind
direction
speed
KPH
gust
KPH
rain 1hr
cm
rain 24hr
cm
rain mn
cm
humidity
%
barometer
mb
20260510004504 11 160 4.8 0.0 0.00 0.00 0.00 100 1013.0
20260510001504 11 180 8.0 0.0 0.00 0.00 0.00 100 1013.0
20260510000004 11 190 12.9 0.0 0.00 0.00 0.00 100 1014.0
20260509234503 11 190 12.9 0.0 0.00 0.00 0.00 100 1014.0
20260509233004 11 170 9.7 0.0 0.00 0.00 0.00 100 1014.0
20260509231504 11 170 9.7 0.0 0.00 0.00 0.00 100 1014.0
20260509223005 11 250 12.9 0.0 0.00 0.00 0.00 93 1012.0
20260509221504 11 250 12.9 0.0 0.00 0.00 0.00 93 1012.0
20260509220007 11 250 19.3 0.0 0.00 0.00 0.00 100 1012.0
20260509213004 11 250 20.9 0.0 0.00 0.00 0.00 100 1012.0
20260509210004 13 170 19.3 0.0 0.00 0.00 0.00 71 1011.0
20260509203004 13 160 19.3 0.0 0.00 0.00 0.00 76 1010.0
20260509190004 15 140 12.9 0.0 0.00 0.00 0.00 82 1010.0
20260509183004 13 120 8.0 0.0 0.00 0.00 0.00 87 1010.0
20260509181504 13 120 8.0 0.0 0.00 0.00 0.00 87 1010.0
20260509180005 13 170 11.3 0.0 0.00 0.00 0.00 87 1010.0
20260509173004 15 160 12.9 0.0 0.00 0.00 0.00 82 1009.0
20260509171504 15 160 12.9 0.0 0.00 0.00 0.00 82 1009.0
20260509170004 16 0 3.2 0.0 0.00 0.00 0.00 77 1009.0
20260509163003 16 0 3.2 0.0 0.00 0.00 0.00 82 1009.0
20260509153004 16 110 8.0 0.0 0.00 0.00 0.00 72 1010.0
20260509150004 15 70 4.8 0.0 0.00 0.00 0.00 76 1010.0
20260509144504 15 70 4.8 0.0 0.00 0.00 0.00 76 1010.0
20260509143005 13 130 3.2 0.0 0.00 0.00 0.00 87 1010.0
20260509141504 13 130 3.2 0.0 0.00 0.00 0.00 87 1010.0
20260509134504 12 180 9.7 0.0 0.00 0.00 0.00 100 1011.0
20260509131503 12 230 24.1 0.0 0.00 0.00 0.00 93 1011.0
20260509130004 13 280 14.5 0.0 0.00 0.00 0.00 87 1010.0
20260509124504 13 280 14.5 0.0 0.00 0.00 0.00 87 1010.0
20260509120004 15 210 11.3 0.0 0.00 0.00 0.00 76 1010.0
20260509113004 13 180 11.3 0.0 0.00 0.00 0.00 82 1010.0
20260509111504 13 180 11.3 0.0 0.00 0.00 0.00 82 1010.0
20260509110004 15 160 14.5 0.0 0.00 0.00 0.00 67 1010.0
20260509104503 15 160 14.5 0.0 0.00 0.00 0.00 67 1010.0
20260509100004 15 150 19.3 0.0 0.00 0.00 0.00 72 1010.0
20260509091504 15 140 12.9 0.0 0.00 0.00 0.00 72 1010.0
20260509083004 13 150 11.3 0.0 0.00 0.00 0.00 76 1010.0
20260509080004 12 160 9.7 0.0 0.00 0.00 0.00 82 1010.0
20260509074504 12 180 11.3 0.0 0.00 0.00 0.00 82 1011.0
20260509071504 12 160 9.7 0.0 0.00 0.00 0.00 76 1010.0
20260509070004 12 170 11.3 0.0 0.00 0.00 0.00 76 1010.0
20260509063004 12 170 12.9 0.0 0.00 0.00 0.00 76 1010.0
20260509061504 12 170 12.9 0.0 0.00 0.00 0.00 76 1010.0
20260509054504 12 120 4.8 0.0 0.00 0.00 0.00 87 1010.0
20260509050004 12 120 9.7 0.0 0.00 0.00 0.00 87 1009.0
20260509044504 12 120 9.7 0.0 0.00 0.00 0.00 87 1009.0
20260509043004 12 130 14.5 0.0 0.00 0.00 0.00 82 1010.0
20260509041503 12 130 14.5 0.0 0.00 0.00 0.00 82 1010.0
20260509040004 12 120 4.8 0.0 0.00 0.00 0.00 87 1010.0
20260509034504 12 120 4.8 0.0 0.00 0.00 0.00 87 1010.0
20260509033005 12 120 4.8 0.0 0.00 0.00 0.00 87 1010.0
20260509024504 12 120 4.8 0.0 0.00 0.00 0.00 87 1010.0
20260509021504 11 150 1.6 0.0 0.00 0.00 0.00 93 1010.0
20260509014504 10 0 1.6 0.0 0.00 0.00 0.00 100 1011.0
20260509010004 11 0 3.2 0.0 0.00 0.00 0.00 93 1011.0